Regional Weather Roundup
Issued by NWS Little Rock, AR

Home | Current Version | Previous Version | Graphics & Text | Print | Product List | Glossary On
Versions: 1 2 3 4 5 6 7 8 9 10 11 12 13 14 15 16 17 18 19 20 21 22 23 24 25 26 27 28 29 30 31 32 33 34 35 36 37 38 39 40 41 42 43 44 45 46 47 48 49 50
000
ASUS44 KLZK 022305
RWRLZK

WEATHER ROUNDUP FOR ARKANSAS
NATIONAL WEATHER SERVICE LITTLE ROCK AR
600 PM CDT THU JUL 02 2015

NOTE: "FAIR" INDICATES FEW OR NO CLOUDS BELOW 12,000 FEET WITH NO
SIGNIFICANT WEATHER AND/OR OBSTRUCTIONS TO VISIBILITY.

ARZ001-003-010-029-030000-
NORTHWEST ARKANSAS

CITY           SKY/WX    TMP DP  RH WIND       PRES   REMARKS
FAYETTEVILLE   LGT RAIN  78  75  90 SW7       29.88S
FORT SMITH     PTSUNNY   87  69  54 SW9       29.85F HX  91
HARRISON       PTSUNNY   81  75  82 W3        29.88R HX  87
BENTONVILLE    CLOUDY    79  70  73 W8        29.91R
ROGERS         CLOUDY    80  74  81 SW10      29.90R HX  85
SILOAM SPGS    CLOUDY    72  63  73 W18G36      N/A  THUNDER
HIGHFILL       CLOUDY    77  71  82 SW6       29.89S
SPRINGDALE     MOSUNNY   75  72  88 SW7       29.88F
$$

ARZ004-005-016-030000-
NORTH CENTRAL ARKANSAS

CITY           SKY/WX    TMP DP  RH WIND       PRES   REMARKS
BATESVILLE     PTSUNNY   88  75  66 SW8       29.82S HX  97
FLIPPIN          N/A     84  73  70 CALM      29.81F HX  91
MTN HOME       MOSUNNY   82  76  81 CALM      29.84S HX  89
$$

ARZ040-041-030000-
WEST CENTRAL ARKANSAS

CITY           SKY/WX    TMP DP  RH WIND       PRES   REMARKS
MENA           MOSUNNY   88  70  55 SW14G24   29.91F HX  92
MOUNT IDA      MOSUNNY   84  69  60 VRB3      29.89S HX  88
$$

ARZ009-017-025-026-028-030000-
NORTHEAST ARKANSAS

CITY           SKY/WX    TMP DP  RH WIND       PRES   REMARKS
JONESBORO      CLOUDY    85  75  72 S12       29.80F HX  93
NEWPORT        PTSUNNY   90  75  61 SW10      29.82F HX 100
WALNUT RIDGE   CLOUDY    82  73  74 W3        29.80F HX  88
BLYTHEVILLE    MOSUNNY   82  74  76 S10       29.83F HX  88
$$

ARZ022-023-033-042-044-030000-
CENTRAL ARKANSAS

CITY           SKY/WX    TMP DP  RH WIND       PRES   REMARKS
LITTLE ROCK    PTSUNNY   89  66  46 SW14G22   29.86S HX  91
N LITTLE ROCK  PTSUNNY   87  72  61 SW9G15    29.86S HX  92
JACKSONVILLE   MOSUNNY   91  70  50 SW17G24   29.84F HX  95
SEARCY         PTSUNNY   88  75  65 SW8       29.84F HX  97
HOT SPRINGS    MOSUNNY   87  67  51 W16G26    29.89F HX  90
RUSSELLVILLE   PTSUNNY   87  72  60 SW6       29.84S HX  93
CLINTON        FAIR      88  75  66 SW8       29.84S HX  97
$$

ARZ036-030000-
EAST ARKANSAS

CITY           SKY/WX    TMP DP  RH WIND       PRES   REMARKS
WEST MEMPHIS   CLOUDY    85  71  63 SW9G17    29.84F HX  90
$$

ARZ050-053-066-070-073-030000-
SOUTHWEST ARKANSAS

CITY           SKY/WX    TMP DP  RH WIND       PRES   REMARKS
ARKADELPHIA    FAIR      88  71  56 SW13      29.90S HX  93
CAMDEN         MOSUNNY   88  68  51 MISG      29.91F HX  91
TEXARKANA      CLOUDY    88  72  58 SW10G18   29.92F HX  94
EL DORADO      MOSUNNY   88  71  57 SW12      29.93F HX  94
DE QUEEN       PTSUNNY   86  72  62 SW13G18   29.89F HX  92
$$

ARZ056-057-069-030000-
SOUTHEAST ARKANSAS

CITY           SKY/WX    TMP DP  RH WIND       PRES   REMARKS
PINE BLUFF     SUNNY     88  70  55 SW12G23   29.89S HX  93
STUTTGART      MOSUNNY   90  68  48 MISG      29.85F HX  93
MONTICELLO     MOSUNNY   88  71  57 SW13G23   29.91F HX  94

$$





USA.gov is the U.S. government's official web portal to all federal, state and local government web resources and services.